Погода в Кордове

Россия / Красноярский край     54°05′31″N   93°16′41″E
темп.,
°C
ветер,
м/с
пор.,
м/с
влажн.,
%
обл.,
%
осадки,
мм/ч
давл.,
гПа
погр.,
м
19 января, вт
вт1901:00−5ююз41388100 0.1 1010668
04:00−6зсз3895100 1.0 1011614
07:00−10зюз1290100 1.4 101321
10:00−9юз1196100 0.4 101461
13:00−8зсз1292100 0.8 1016339
16:00−10юз3789100 0.3 1016416
19:00−15ююз129183 0.3 101920
22:00−17ю129099 0.0 101920
20 января, ср
ср2001:00−19ю119554 0.0 102120
04:00−21ююв11960 0.0 102220
07:00−22зсз11956 0.0 102620
10:00−22с119345 0.0 102921
13:00−17всв118323 0.0 1030310
16:00−17св11890 0.0 103020
19:00−22св11910 0.0 103220
22:00−23св11910 0.0 103220
21 января, чт
чт2101:00−24всв11922 0.0 103220
04:00−24всв229352 0.0 103120
07:00−23всв229171 0.0 102924
10:00−20в1287100 0.0 102693
13:00−15в1294100 0.7 1023222
16:00−13в1194100 1.5 1021149
19:00−13в1197100 1.8 102122
22:00−13в1196100 0.1 102020
22 января, пт
пт2201:00−12всв1297100 0.3 101735
04:00−11в1296100 0.0 101423
07:00−11в2296100 0.3 101173
10:00−10в1295100 0.2 1008104
13:00−7в1392100 0.3 1005217
16:00−6зюз1196100 2.1 1005112
19:00−7зюз1197100 3.5 101053
22:00−9з1198100 0.3 101221
23 января, сб
сб2301:00−11зсз1197100 0.4 101321
04:00−11сз1196100 0.2 101521
07:00−11з1197100 0.8 101728
10:00−12зюз1196100 0.2 102022
13:00−9зюз1181100 0.2 1022578
16:00−11юз4787100 0.3 1023620
19:00−14ююв229199 0.3 102529
22:00−14юв1297100 0.1 102527